Weather History for Middletown, OH

Change the Weather History Date:

Wednesday, December 19, 2012

  Actual Average (KDAY) Record (KDAY)
Temperature  
Mean Temperature 40 °F 30 °F  
Max Temperature 47 °F 37 °F 60 °F (1895)
Min Temperature 32 °F 23 °F -7 °F (1963)
Degree Days  
Heating Degree Days 26 35  
Month to date heating degree days 613  
Since 1 July heating degree days 1724  
Cooling Degree Days 0 0  
Month to date cooling degree days 0  
Year to date cooling degree days 891  
Moisture  
Dew Point 38 °F    
Average Humidity 89    
Maximum Humidity 100    
Minimum Humidity 72    
Precipitation  
Precipitation 0.00 in 0.09 in 1.55 in (2008)
Month to date precipitation 1.89  
Year to date precipitation 39.82  
Snow  
Snow 0.00 in 0.20 in 5.40 in (1995)
Month to date snowfall 2.3  
Since 1 July snowfall 3.3  
Snow Depth -    
Sea Level Pressure  
Sea Level Pressure 30.01 in    
Wind  
Wind Speed 3 mph (SSE)    
Max Wind Speed 10 mph    
Max Gust Speed 20 mph    
Visibility 8 miles    
Events      
T = Trace of Precipitation, MM = Missing Value Source: NWS Daily Summary

Daily Weather History Graph

Daily Weather History Graph

Search for Another Location

Airport:

Trip Planner

Search our weather history database for the weather conditions in past years. The results will help you decide how hot, cold, wet, or windy it might be!

Date:

Astronomy

Dec. 19, 2012 Rise Set
Actual Time 7:53 AM EST 5:16 PM EST
Civil Twilight 7:23 AM EST 5:46 PM EST
Nautical Twilight 6:49 AM EST 6:20 PM EST
Astronomical Twilight 6:16 AM EST 6:53 PM EST
Moon 12:03 PM EST (12/19) No Moon Set
Length of Visible Light 10h 23m
Length of Day
9h 22m
Waxing Crescent, 45% of the Moon is Illuminated
Dec 19
Waxing Crescent
Dec 20
First Quarter
Dec 28
Full
Jan 4
Last Quarter
Jan 11
New

Hourly Weather History & Observations

Time (EST) Temp. Windchill Dew Point Humidity Pressure Visibility Wind Dir Wind Speed Gust Speed Precip Events Conditions
12:15 AM 35.1 °F - 35.1 °F 100% 29.79 in 5.0 mi Calm Calm - N/A   Clear
12:35 AM 32.5 °F - 32.5 °F 100% 29.79 in 1.5 mi Calm Calm - N/A   Mist
12:55 AM 32.5 °F - 32.5 °F 100% 29.80 in 0.8 mi Calm Calm - N/A   Mist
1:15 AM 32.5 °F - 32.5 °F 100% 29.80 in 3.0 mi Calm Calm - N/A   Clear
1:35 AM 32.5 °F - 32.5 °F 100% 29.81 in 1.2 mi Calm Calm - N/A   Mist
1:55 AM 32.5 °F - 32.5 °F 100% 29.82 in 0.8 mi Calm Calm - N/A   Mostly Cloudy
2:15 AM 32.5 °F - 32.5 °F 100% 29.83 in 2.5 mi Calm Calm - N/A   Mostly Cloudy
2:35 AM 32.5 °F - 32.5 °F 100% 29.85 in 4.0 mi Calm Calm - N/A   Overcast
2:55 AM 33.3 °F 27.1 °F 33.3 °F 100% 29.86 in 5.0 mi WSW 6.9 mph - N/A   Overcast
3:15 AM 38.8 °F 32.6 °F 38.8 °F 100% 29.87 in 10.0 mi WNW 9.2 mph 19.6 mph N/A   Mostly Cloudy
3:35 AM 40.1 °F 34.1 °F 37.6 °F 91% 29.89 in 10.0 mi West 9.2 mph 17.3 mph N/A   Mostly Cloudy
3:55 AM 40.1 °F 33.6 °F 37.4 °F 90% 29.90 in 10.0 mi WNW 10.4 mph 16.1 mph N/A   Overcast
4:15 AM 38.8 °F 33.2 °F 36.5 °F 91% 29.91 in 7.0 mi WNW 8.1 mph - N/A   Overcast
4:35 AM 38.8 °F 32.6 °F 36.5 °F 91% 29.92 in 7.0 mi West 9.2 mph - N/A   Overcast
4:55 AM 38.8 °F 32.6 °F 36.5 °F 91% 29.94 in 7.0 mi West 9.2 mph 16.1 mph N/A   Overcast
5:15 AM 38.8 °F 34.6 °F 36.7 °F 92% 29.94 in 7.0 mi WNW 5.8 mph - N/A   Overcast
5:35 AM 38.8 °F 33.2 °F 37.0 °F 93% 29.95 in 7.0 mi West 8.1 mph - N/A   Overcast
5:55 AM 38.8 °F 33.8 °F 37.0 °F 93% 29.97 in 7.0 mi West 6.9 mph - N/A   Overcast
6:15 AM 38.8 °F 34.6 °F 37.4 °F 95% 29.98 in 7.0 mi West 5.8 mph - N/A   Overcast
6:35 AM 38.8 °F 35.4 °F 37.0 °F 93% 29.98 in 7.0 mi West 4.6 mph - N/A   Overcast
6:55 AM 38.8 °F 35.4 °F 37.0 °F 93% 29.99 in 7.0 mi WSW 4.6 mph - N/A   Overcast
7:15 AM 38.8 °F 36.5 °F 37.6 °F 95% 30.00 in 7.0 mi WSW 3.5 mph - N/A   Overcast
7:35 AM 37.9 °F 33.5 °F 36.7 °F 95% 30.00 in 7.0 mi WSW 5.8 mph - N/A   Overcast
7:55 AM 37.6 °F - 36.5 °F 96% 30.00 in 7.0 mi Calm Calm - N/A   Scattered Clouds
8:15 AM 37.6 °F - 36.5 °F 96% 30.01 in 5.0 mi Calm Calm - N/A   Scattered Clouds
8:35 AM 36.7 °F 34.1 °F 36.3 °F 99% 30.02 in 5.0 mi SW 3.5 mph - N/A   Scattered Clouds
8:55 AM 37.6 °F 32.3 °F 37.0 °F 98% 30.04 in 5.0 mi SW 6.9 mph - N/A   Clear
9:15 AM 37.6 °F 31.6 °F 36.7 °F 97% 30.05 in 5.0 mi SW 8.1 mph - N/A   Clear
9:35 AM 37.6 °F 34.0 °F 36.5 °F 96% 30.06 in 5.0 mi SSW 4.6 mph - N/A   Clear
9:55 AM 37.6 °F 31.6 °F 36.7 °F 97% 30.08 in 5.0 mi SW 8.1 mph - N/A   Clear
10:15 AM 38.8 °F 35.4 °F 37.6 °F 95% 30.08 in 5.0 mi SW 4.6 mph - N/A   Clear
10:35 AM 38.8 °F 36.5 °F 36.9 °F 93% 30.08 in 7.0 mi SSW 3.5 mph - N/A   Clear
10:55 AM 40.1 °F - 37.6 °F 91% 30.07 in 7.0 mi Calm Calm - N/A   Clear
11:15 AM 40.1 °F - 37.0 °F 89% 30.07 in 7.0 mi Calm Calm - N/A   Clear
11:35 AM 41.4 °F - 37.8 °F 87% 30.07 in 7.0 mi Calm Calm - N/A   Clear
11:55 AM 41.9 °F - 37.6 °F 85% 30.08 in 7.0 mi Calm Calm - N/A   Clear
12:15 PM 42.8 °F - 37.9 °F 83% 30.07 in 10.0 mi Calm Calm - N/A   Clear
12:35 PM 45.1 °F - 39.9 °F 82% 30.07 in 7.0 mi Calm Calm - N/A   Clear
12:55 PM 45.1 °F - 39.9 °F 82% 30.07 in 7.0 mi Calm Calm - N/A   Clear
1:15 PM 46.4 °F 45.2 °F 40.5 °F 80% 30.07 in 10.0 mi East 3.5 mph - N/A   Clear
1:35 PM 47.7 °F - 41.4 °F 79% 30.07 in 10.0 mi Calm Calm - N/A   Scattered Clouds
1:55 PM 47.7 °F - 41.0 °F 78% 30.08 in 10.0 mi Calm Calm - N/A   Scattered Clouds
2:15 PM 47.7 °F - 40.6 °F 77% 30.07 in 7.0 mi Calm Calm - N/A   Scattered Clouds
2:35 PM 47.7 °F - 40.5 °F 76% 30.06 in 10.0 mi Calm Calm - N/A   Mostly Cloudy
2:55 PM 47.7 °F - 40.1 °F 75% 30.05 in 10.0 mi SE 3.5 mph - N/A   Scattered Clouds
3:15 PM 47.7 °F - 39.2 °F 72% 30.07 in 10.0 mi SE 4.6 mph - N/A   Clear
3:35 PM 47.7 °F - 40.1 °F 75% 30.08 in 10.0 mi Calm Calm - N/A   Clear
3:55 PM 47.7 °F - 40.8 °F 77% 30.07 in 10.0 mi East 3.5 mph - N/A   Clear
4:15 PM 47.7 °F - 40.5 °F 76% 30.08 in 10.0 mi SE 4.6 mph - N/A   Clear
4:35 PM 45.1 °F 42.8 °F 39.0 °F 79% 30.07 in 10.0 mi ESE 4.6 mph - N/A   Clear
4:55 PM 45.1 °F - 39.2 °F 80% 30.08 in 10.0 mi Calm Calm - N/A   Clear
5:15 PM 42.8 °F 40.1 °F 38.1 °F 84% 30.06 in 10.0 mi ENE 4.6 mph - N/A   Clear
5:35 PM 42.8 °F - 38.3 °F 84% 30.08 in 10.0 mi Calm Calm - N/A   Clear
5:55 PM 42.8 °F 41.1 °F 38.1 °F 84% 30.08 in 10.0 mi ESE 3.5 mph - N/A   Clear
6:15 PM 45.1 °F 43.7 °F 40.5 °F 84% 30.09 in 10.0 mi ESE 3.5 mph - N/A   Scattered Clouds
6:35 PM 44.2 °F 41.8 °F 39.9 °F 85% 30.09 in 10.0 mi ESE 4.6 mph - N/A   Scattered Clouds
6:55 PM 42.8 °F 40.1 °F 38.7 °F 85% 30.09 in 10.0 mi ESE 4.6 mph - N/A   Scattered Clouds
7:15 PM 42.8 °F 40.1 °F 38.7 °F 85% 30.09 in 10.0 mi East 4.6 mph - N/A   Clear
7:35 PM 42.8 °F 38.6 °F 38.8 °F 86% 30.08 in 10.0 mi East 6.9 mph - N/A   Clear
7:55 PM 42.8 °F 39.3 °F 39.0 °F 86% 30.07 in 10.0 mi East 5.8 mph - N/A   Clear
8:15 PM 41.7 °F 37.3 °F 38.3 °F 88% 30.08 in 10.0 mi ENE 6.9 mph - N/A   Mostly Cloudy
8:35 PM 42.4 °F 38.8 °F 38.8 °F 87% 30.07 in 10.0 mi East 5.8 mph - N/A   Mostly Cloudy
8:55 PM 42.8 °F 39.3 °F 38.7 °F 85% 30.06 in 10.0 mi ESE 5.8 mph - N/A   Mostly Cloudy
9:15 PM 42.3 °F 37.9 °F 38.5 °F 86% 30.05 in 10.0 mi East 6.9 mph - N/A   Mostly Cloudy
9:35 PM 42.8 °F 40.1 °F 38.8 °F 86% 30.05 in 10.0 mi East 4.6 mph - N/A   Overcast
9:55 PM 42.8 °F 38.6 °F 38.8 °F 86% 30.05 in 10.0 mi East 6.9 mph - N/A   Overcast
10:15 PM 42.8 °F 41.1 °F 39.0 °F 86% 30.04 in 10.0 mi East 3.5 mph - N/A   Overcast
10:35 PM 42.8 °F 38.6 °F 39.0 °F 86% 30.03 in 10.0 mi ESE 6.9 mph - N/A   Overcast
10:55 PM 42.8 °F 39.3 °F 39.0 °F 86% 30.02 in 10.0 mi East 5.8 mph - N/A   Overcast
11:15 PM 42.8 °F 41.1 °F 38.7 °F 85% 30.00 in 10.0 mi East 3.5 mph - N/A   Overcast
11:35 PM 42.1 °F 39.2 °F 38.5 °F 87% 30.00 in 10.0 mi ESE 4.6 mph - N/A   Mostly Cloudy
11:55 PM 41.5 °F 37.8 °F 38.3 °F 88% 29.99 in 10.0 mi East 5.8 mph - N/A   Clear